DAH4701 HECA-DAAG

Flight info

Callsign DAH4701
Flight time 3h 43m
Altitude 30000
Route CVO L617 NABSI M872 METRU UP868 ARLOS DCT SONAK UM978 DIDON UR781 ADRIL UM978 TUC UA411 KEMIR UM978 MORJA UA411 BJA UJ7 LIMON UG26 ZEM
Aircraft B738/M-SDE2E3FGHIRWXY/LB1

Departure

Time 2026-05-07 08:16
Airport Cairo International Airport (HECA)

Arrival

Time 2026-05-07 12:00
Airport Houari Boumediene Airport (DAAG)
Time Latitude Longitude Altitude Speed Heading
2026-05-07 07:54 30.11305 31.40868 356 ft 0 kts 320°
2026-05-07 07:58 30.11302 31.40871 356 ft 0 kts 320°
2026-05-07 08:00 30.11301 31.40872 356 ft 2 kts 321°
2026-05-07 08:01 30.11284 31.40888 366 ft 4 kts 319°
2026-05-07 08:01 30.11264 31.40909 359 ft 4 kts 315°
2026-05-07 08:01 30.11246 31.40932 363 ft 4 kts 307°
2026-05-07 08:01 30.11234 31.40952 362 ft 0 kts 296°
2026-05-07 08:05 30.11235 31.40951 363 ft 0 kts 290°
2026-05-07 08:05 30.11234 31.40949 362 ft 0 kts 271°
2026-05-07 08:05 30.11222 31.40932 368 ft 5 kts 228°
2026-05-07 08:06 30.11186 31.40887 366 ft 10 kts 228°
2026-05-07 08:06 30.11130 31.40816 367 ft 14 kts 228°
2026-05-07 08:06 30.11058 31.40719 363 ft 17 kts 231°
2026-05-07 08:06 30.11009 31.40650 369 ft 17 kts 231°
2026-05-07 08:07 30.10935 31.40551 366 ft 16 kts 227°
2026-05-07 08:07 30.10840 31.40427 371 ft 15 kts 229°
2026-05-07 08:07 30.10772 31.40338 367 ft 14 kts 229°
2026-05-07 08:07 30.10738 31.40303 364 ft 9 kts 205°
2026-05-07 08:08 30.10698 31.40311 367 ft 4 kts 153°
2026-05-07 08:08 30.10670 31.40327 369 ft 4 kts 153°
2026-05-07 08:08 30.10645 31.40315 370 ft 4 kts 230°
2026-05-07 08:08 30.10623 31.40290 370 ft 4 kts 224°
2026-05-07 08:09 30.10600 31.40264 371 ft 6 kts 224°
2026-05-07 08:09 30.10557 31.40211 371 ft 11 kts 229°
2026-05-07 08:09 30.10510 31.40150 371 ft 8 kts 229°
2026-05-07 08:09 30.10468 31.40117 372 ft 8 kts 182°
2026-05-07 08:10 30.10419 31.40133 376 ft 7 kts 153°
2026-05-07 08:10 30.10380 31.40169 380 ft 7 kts 137°
2026-05-07 08:10 30.10344 31.40206 384 ft 7 kts 139°
2026-05-07 08:10 30.10288 31.40261 387 ft 14 kts 139°
2026-05-07 08:11 30.10213 31.40335 390 ft 14 kts 139°
2026-05-07 08:11 30.10143 31.40407 389 ft 13 kts 139°
2026-05-07 08:11 30.10072 31.40475 398 ft 14 kts 140°
2026-05-07 08:11 30.09991 31.40553 405 ft 16 kts 140°
2026-05-07 08:12 30.09909 31.40635 410 ft 15 kts 139°
2026-05-07 08:12 30.09831 31.40712 414 ft 15 kts 140°
2026-05-07 08:12 30.09783 31.40807 416 ft 14 kts 90°
2026-05-07 08:12 30.09799 31.40916 423 ft 13 kts 79°
2026-05-07 08:13 30.09816 31.41020 428 ft 13 kts 79°
2026-05-07 08:13 30.09834 31.41122 434 ft 14 kts 79°
2026-05-07 08:13 30.09854 31.41243 434 ft 17 kts 79°
2026-05-07 08:13 30.09878 31.41386 434 ft 19 kts 78°
2026-05-07 08:14 30.09904 31.41536 437 ft 18 kts 79°
2026-05-07 08:14 30.09923 31.41656 447 ft 11 kts 79°
2026-05-07 08:14 30.09904 31.41736 450 ft 11 kts 131°
2026-05-07 08:14 30.09849 31.41789 455 ft 10 kts 140°
2026-05-07 08:15 30.09816 31.41821 457 ft 4 kts 140°
2026-05-07 08:15 30.09796 31.41840 458 ft 4 kts 140°
2026-05-07 08:15 30.09769 31.41869 460 ft 8 kts 136°
2026-05-07 08:15 30.09758 31.41955 456 ft 14 kts 65°
2026-05-07 08:16 30.09915 31.42169 458 ft 71 kts 49°
2026-05-07 08:16 30.10395 31.42813 460 ft 141 kts 49°
2026-05-07 08:16 30.11182 31.43816 582 ft 192 kts 47°
2026-05-07 08:16 30.12151 31.45051 985 ft 222 kts 47°
2026-05-07 08:17 30.13405 31.46103 1669 ft 232 kts 17°
2026-05-07 08:17 30.15006 31.46010 2584 ft 236 kts 337°
2026-05-07 08:17 30.16246 31.44797 3210 ft 250 kts 304°
2026-05-07 08:17 30.16706 31.42753 3565 ft 273 kts 265°
2026-05-07 08:18 30.16025 31.40733 4295 ft 277 kts 230°
2026-05-07 08:18 30.14651 31.39147 5017 ft 282 kts 230°
2026-05-07 08:18 30.13856 31.37118 5719 ft 282 kts 266°
2026-05-07 08:18 30.14180 31.34931 6472 ft 277 kts 300°
2026-05-07 08:19 30.15269 31.33106 7233 ft 277 kts 311°
2026-05-07 08:19 30.16533 31.31448 7925 ft 280 kts 315°
2026-05-07 08:19 30.17894 31.29811 8635 ft 283 kts 316°
2026-05-07 08:19 30.19298 31.28193 9333 ft 286 kts 317°
2026-05-07 08:20 30.20729 31.26587 10062 ft 287 kts 317°
2026-05-07 08:20 30.22182 31.24976 10603 ft 296 kts 317°
2026-05-07 08:20 30.23734 31.23275 10776 ft 317 kts 317°
2026-05-07 08:20 30.25392 31.21473 10949 ft 337 kts 317°
2026-05-07 08:21 30.27157 31.19560 11096 ft 356 kts 317°
2026-05-07 08:21 30.29016 31.17551 11227 ft 373 kts 317°
2026-05-07 08:21 30.30953 31.15459 11430 ft 387 kts 317°
2026-05-07 08:21 30.32913 31.13346 11903 ft 390 kts 317°
2026-05-07 08:22 30.34901 31.11202 12495 ft 391 kts 317°
2026-05-07 08:22 30.36901 31.09044 13026 ft 393 kts 317°
2026-05-07 08:22 30.38894 31.06893 13540 ft 396 kts 317°
2026-05-07 08:22 30.40920 31.04702 14041 ft 398 kts 316°
2026-05-07 08:23 30.42953 31.02504 14533 ft 401 kts 316°
2026-05-07 08:23 30.44968 31.00327 14985 ft 403 kts 316°
2026-05-07 08:23 30.47024 30.98104 15446 ft 406 kts 316°
2026-05-07 08:23 30.49095 30.95864 15936 ft 408 kts 316°
2026-05-07 08:24 30.51171 30.93617 16388 ft 410 kts 316°
2026-05-07 08:24 30.53268 30.91344 16798 ft 413 kts 316°
2026-05-07 08:24 30.55375 30.89061 17259 ft 415 kts 316°
2026-05-07 08:24 30.57484 30.86772 17672 ft 417 kts 316°
2026-05-07 08:25 30.59613 30.84461 18095 ft 419 kts 316°
2026-05-07 08:25 30.61748 30.82140 18494 ft 422 kts 316°
2026-05-07 08:25 30.63895 30.79806 18867 ft 425 kts 316°
2026-05-07 08:25 30.66054 30.77457 19249 ft 427 kts 316°
2026-05-07 08:26 30.70431 30.72691 19934 ft 433 kts 316°
2026-05-07 08:26 30.72637 30.70287 20315 ft 435 kts 316°
2026-05-07 08:26 30.74815 30.67911 20667 ft 437 kts 316°
2026-05-07 08:27 30.77066 30.65456 21001 ft 439 kts 316°
2026-05-07 08:27 30.79264 30.63056 21322 ft 441 kts 316°
2026-05-07 08:27 30.81509 30.60602 21644 ft 443 kts 316°
2026-05-07 08:27 30.83758 30.58142 21948 ft 445 kts 316°
2026-05-07 08:28 30.86024 30.55662 22220 ft 448 kts 316°
2026-05-07 08:28 30.88301 30.53169 22516 ft 450 kts 316°
2026-05-07 08:28 30.90579 30.50673 22815 ft 452 kts 316°
2026-05-07 08:28 30.92877 30.48153 23093 ft 453 kts 316°
2026-05-07 08:29 30.95179 30.45625 23336 ft 455 kts 316°
2026-05-07 08:29 30.97495 30.43082 23563 ft 458 kts 316°
2026-05-07 08:29 30.99820 30.40527 23814 ft 460 kts 316°
2026-05-07 08:29 31.02139 30.37978 24078 ft 461 kts 316°
2026-05-07 08:30 31.04448 30.35438 24297 ft 463 kts 316°
2026-05-07 08:30 31.06731 30.32793 24536 ft 464 kts 310°
2026-05-07 08:30 31.08656 30.29764 24773 ft 466 kts 302°
2026-05-07 08:30 31.10207 30.26446 24993 ft 467 kts 295°
2026-05-07 08:31 31.11340 30.22874 25184 ft 470 kts 288°
2026-05-07 08:31 31.12302 30.19219 25428 ft 471 kts 287°
2026-05-07 08:31 31.13254 30.15571 25734 ft 470 kts 287°
2026-05-07 08:31 31.14219 30.11928 26108 ft 468 kts 288°
2026-05-07 08:32 31.15201 30.08291 26479 ft 467 kts 288°
2026-05-07 08:32 31.16185 30.04688 26822 ft 465 kts 288°
2026-05-07 08:32 31.17169 30.01092 27128 ft 465 kts 288°
2026-05-07 08:32 31.18173 29.97507 27438 ft 464 kts 291°
2026-05-07 08:33 31.19507 29.94066 27715 ft 464 kts 299°
2026-05-07 08:33 31.21268 29.90910 28042 ft 463 kts 306°
2026-05-07 08:33 31.23193 29.87901 28397 ft 462 kts 306°
2026-05-07 08:33 31.25114 29.84900 28737 ft 461 kts 306°
2026-05-07 08:34 31.27027 29.81894 29034 ft 460 kts 306°
2026-05-07 08:34 31.28903 29.78919 29352 ft 460 kts 306°
2026-05-07 08:34 31.30787 29.75912 29772 ft 456 kts 306°
2026-05-07 08:34 31.32654 29.72919 30105 ft 455 kts 305°
2026-05-07 08:35 31.36397 29.66896 30128 ft 458 kts 305°
2026-05-07 08:35 31.40134 29.60876 30124 ft 455 kts 305°
2026-05-07 08:36 31.43845 29.54893 30132 ft 452 kts 305°
2026-05-07 08:36 31.47540 29.48925 30140 ft 451 kts 305°
2026-05-07 08:37 31.51198 29.43008 30139 ft 451 kts 305°
2026-05-07 08:37 31.54883 29.37036 30139 ft 452 kts 305°
2026-05-07 08:38 31.58569 29.31055 30143 ft 453 kts 305°
2026-05-07 08:38 31.62250 29.25037 30142 ft 454 kts 305°
2026-05-07 08:39 31.65926 29.19001 30137 ft 455 kts 305°
2026-05-07 08:39 31.69611 29.12944 30142 ft 456 kts 305°
2026-05-07 08:40 31.73303 29.06871 30148 ft 457 kts 305°
2026-05-07 08:40 31.76984 29.00828 30149 ft 458 kts 305°
2026-05-07 08:41 31.80702 28.94731 30149 ft 458 kts 305°
2026-05-07 08:41 31.84411 28.88637 30148 ft 458 kts 305°
2026-05-07 08:42 31.88114 28.82538 30148 ft 459 kts 305°
2026-05-07 08:42 31.91830 28.76406 30147 ft 458 kts 305°
2026-05-07 08:43 31.95509 28.70326 30149 ft 458 kts 305°
2026-05-07 08:43 31.99202 28.64212 30147 ft 458 kts 304°
2026-05-07 08:44 32.02893 28.58096 30149 ft 457 kts 304°
2026-05-07 08:44 32.06569 28.51992 30145 ft 456 kts 304°
2026-05-07 08:45 32.10242 28.45883 30144 ft 456 kts 304°
2026-05-07 08:45 32.13903 28.39782 30179 ft 454 kts 304°
2026-05-07 08:46 32.17556 28.33689 30184 ft 454 kts 304°
2026-05-07 08:46 32.21183 28.27627 30184 ft 454 kts 304°
2026-05-07 08:47 32.24827 28.21530 30187 ft 455 kts 304°
2026-05-07 08:47 32.28470 28.15421 30182 ft 455 kts 304°
2026-05-07 08:48 32.32116 28.09298 30185 ft 455 kts 304°
2026-05-07 08:48 32.35761 28.03167 30185 ft 455 kts 304°
2026-05-07 08:49 32.39404 27.97029 30185 ft 456 kts 304°
2026-05-07 08:49 32.43047 27.90882 30184 ft 456 kts 304°
2026-05-07 08:50 32.46691 27.84724 30183 ft 457 kts 304°
2026-05-07 08:50 32.50335 27.78556 30184 ft 456 kts 304°
2026-05-07 08:51 32.53965 27.72399 30187 ft 456 kts 304°
2026-05-07 08:51 32.57589 27.66243 30188 ft 455 kts 304°
2026-05-07 08:52 32.61180 27.60132 30182 ft 454 kts 304°
2026-05-07 08:52 32.64783 27.53992 30186 ft 453 kts 304°
2026-05-07 08:53 32.68375 27.47861 30183 ft 452 kts 304°
2026-05-07 08:53 32.71961 27.41732 30189 ft 451 kts 304°
2026-05-07 08:54 32.75537 27.35610 30182 ft 450 kts 304°
2026-05-07 08:54 32.79100 27.29500 30189 ft 449 kts 304°
2026-05-07 08:55 32.82662 27.23380 30184 ft 449 kts 304°
2026-05-07 08:55 32.86190 27.17307 30186 ft 448 kts 304°
2026-05-07 08:56 32.89738 27.11192 30195 ft 448 kts 304°
2026-05-07 08:56 32.93274 27.05086 30184 ft 448 kts 304°
2026-05-07 08:57 32.96212 27.00006 30183 ft 448 kts 304°
2026-05-07 08:57 32.99748 26.93875 30188 ft 448 kts 304°
2026-05-07 08:58 33.03285 26.87763 30192 ft 448 kts 306°
2026-05-07 08:58 33.06787 26.81656 30183 ft 445 kts 302°
2026-05-07 08:59 33.10214 26.75449 30175 ft 448 kts 304°
2026-05-07 08:59 33.13757 26.69338 30161 ft 451 kts 306°
2026-05-07 09:00 33.17358 26.63203 30178 ft 451 kts 304°
2026-05-07 09:00 33.20801 26.57031 30165 ft 448 kts 304°
2026-05-07 09:01 33.24326 26.50887 30179 ft 446 kts 304°
2026-05-07 09:01 33.27822 26.44782 30168 ft 443 kts 304°
2026-05-07 09:02 33.31253 26.38662 30185 ft 441 kts 303°
2026-05-07 09:02 33.34614 26.32529 30175 ft 442 kts 303°
2026-05-07 09:03 33.38055 26.26439 30177 ft 445 kts 304°
2026-05-07 09:03 33.41551 26.20293 30180 ft 445 kts 304°
2026-05-07 09:04 33.45005 26.14135 30177 ft 449 kts 303°
2026-05-07 09:04 33.48474 26.07930 30172 ft 448 kts 304°
2026-05-07 09:05 33.52012 26.01775 30154 ft 448 kts 303°
2026-05-07 09:05 33.55451 25.95538 30154 ft 447 kts 303°
2026-05-07 09:06 33.58839 25.89393 30144 ft 447 kts 304°
2026-05-07 09:06 33.62344 25.83240 30150 ft 447 kts 303°
2026-05-07 09:07 33.65778 25.77051 30171 ft 444 kts 304°
2026-05-07 09:07 33.69217 25.70944 30168 ft 440 kts 303°
2026-05-07 09:08 33.72611 25.64786 30180 ft 441 kts 302°
2026-05-07 09:08 33.75970 25.58568 30151 ft 444 kts 303°
2026-05-07 09:09 33.79413 25.52399 30168 ft 445 kts 303°
2026-05-07 09:09 33.82835 25.46253 30171 ft 443 kts 303°
2026-05-07 09:10 33.86267 25.40100 30173 ft 439 kts 303°
2026-05-07 09:10 33.89597 25.33916 30144 ft 438 kts 302°
2026-05-07 09:11 33.92945 25.27781 30169 ft 439 kts 303°
2026-05-07 09:11 33.96403 25.21712 30146 ft 437 kts 305°
2026-05-07 09:12 33.99686 25.15634 30143 ft 434 kts 299°
2026-05-07 09:12 34.01892 25.08899 30159 ft 432 kts 290°
2026-05-07 09:13 34.03893 25.02070 30163 ft 431 kts 290°
2026-05-07 09:13 34.05933 24.95244 30160 ft 432 kts 290°
2026-05-07 09:14 34.07976 24.88429 30162 ft 432 kts 290°
2026-05-07 09:14 34.10018 24.81598 30157 ft 433 kts 290°
2026-05-07 09:15 34.12060 24.74747 30157 ft 434 kts 290°
2026-05-07 09:15 34.14088 24.67925 30156 ft 434 kts 290°
2026-05-07 09:16 34.16125 24.61056 30159 ft 434 kts 290°
2026-05-07 09:16 34.18154 24.54194 30158 ft 434 kts 290°
2026-05-07 09:17 34.20177 24.47337 30159 ft 433 kts 290°
2026-05-07 09:17 34.22196 24.40483 30154 ft 432 kts 290°
2026-05-07 09:18 34.24204 24.33644 30156 ft 431 kts 290°
2026-05-07 09:18 34.26201 24.26825 30159 ft 430 kts 290°
2026-05-07 09:19 34.28194 24.20005 30155 ft 430 kts 290°
2026-05-07 09:19 34.30167 24.13236 30153 ft 429 kts 290°
2026-05-07 09:20 34.32146 24.06436 30158 ft 428 kts 290°
2026-05-07 09:20 34.34120 23.99636 30156 ft 428 kts 290°
2026-05-07 09:21 34.36090 23.92835 30159 ft 427 kts 290°
2026-05-07 09:21 34.38051 23.86045 30156 ft 427 kts 290°
2026-05-07 09:22 34.39996 23.79297 30157 ft 427 kts 290°
2026-05-07 09:22 34.41949 23.72501 30157 ft 427 kts 290°
2026-05-07 09:23 34.43899 23.65703 30159 ft 427 kts 290°
2026-05-07 09:23 34.45845 23.58901 30156 ft 428 kts 290°
2026-05-07 09:24 34.47791 23.52080 30157 ft 428 kts 290°
2026-05-07 09:24 34.49724 23.45292 30152 ft 428 kts 290°
2026-05-07 09:25 34.51666 23.38454 30148 ft 428 kts 290°
2026-05-07 09:25 34.53606 23.31610 30149 ft 429 kts 290°
2026-05-07 09:26 34.55544 23.24754 30148 ft 428 kts 290°
2026-05-07 09:26 34.57461 23.17955 30150 ft 428 kts 290°
2026-05-07 09:27 34.59389 23.11098 30147 ft 428 kts 290°
2026-05-07 09:28 34.62259 23.00866 30149 ft 428 kts 290°
2026-05-07 09:28 34.63954 22.93932 30152 ft 428 kts 287°
2026-05-07 09:29 34.65490 22.86961 30149 ft 427 kts 287°
2026-05-07 09:29 34.67026 22.79979 30147 ft 426 kts 287°
2026-05-07 09:30 34.68560 22.73066 30148 ft 426 kts 287°
2026-05-07 09:30 34.70108 22.66126 30147 ft 424 kts 288°
2026-05-07 09:31 34.71647 22.59200 30147 ft 423 kts 288°
2026-05-07 09:31 34.73178 22.52300 30146 ft 422 kts 288°
2026-05-07 09:32 34.74703 22.45404 30150 ft 422 kts 288°
2026-05-07 09:32 34.76219 22.38551 30144 ft 421 kts 288°
2026-05-07 09:33 34.77731 22.31675 30152 ft 421 kts 288°
2026-05-07 09:33 34.79246 22.24781 30140 ft 422 kts 288°
2026-05-07 09:34 34.80756 22.17870 30133 ft 423 kts 288°
2026-05-07 09:34 34.82267 22.10948 30141 ft 423 kts 288°
2026-05-07 09:35 34.83762 22.04059 30138 ft 423 kts 287°
2026-05-07 09:35 34.85263 21.97140 30135 ft 423 kts 287°
2026-05-07 09:36 34.86774 21.90234 30129 ft 420 kts 288°
2026-05-07 09:36 34.88247 21.83362 30120 ft 418 kts 287°
2026-05-07 09:37 34.89709 21.76512 30117 ft 417 kts 287°
2026-05-07 09:37 34.91172 21.69671 30118 ft 417 kts 287°
2026-05-07 09:38 34.92631 21.62839 30118 ft 415 kts 287°
2026-05-07 09:38 34.94073 21.56077 30121 ft 414 kts 287°
2026-05-07 09:39 34.95515 21.49300 30128 ft 413 kts 287°
2026-05-07 09:39 34.96951 21.42513 30131 ft 412 kts 287°
2026-05-07 09:40 34.98377 21.35748 30129 ft 412 kts 287°
2026-05-07 09:40 34.99801 21.28981 30131 ft 412 kts 287°
2026-05-07 09:41 35.01217 21.22236 30130 ft 413 kts 287°
2026-05-07 09:41 35.02638 21.15438 30131 ft 413 kts 287°
2026-05-07 09:42 35.04061 21.08628 30131 ft 413 kts 287°
2026-05-07 09:42 35.05472 21.01823 30125 ft 413 kts 287°
2026-05-07 09:43 35.06874 20.95060 30133 ft 412 kts 287°
2026-05-07 09:43 35.08278 20.88285 30130 ft 411 kts 287°
2026-05-07 09:44 35.09672 20.81520 30130 ft 410 kts 287°
2026-05-07 09:44 35.10830 20.75906 30133 ft 410 kts 287°
2026-05-07 09:45 35.12214 20.69152 30131 ft 409 kts 287°
2026-05-07 09:45 35.13586 20.62397 30133 ft 408 kts 287°
2026-05-07 09:46 35.14948 20.55712 30129 ft 407 kts 287°
2026-05-07 09:46 35.16314 20.48993 30131 ft 407 kts 286°
2026-05-07 09:47 35.17676 20.42275 30123 ft 406 kts 286°
2026-05-07 09:47 35.19032 20.35562 30118 ft 405 kts 286°
2026-05-07 09:48 35.20378 20.28872 30117 ft 404 kts 286°
2026-05-07 09:48 35.21714 20.22193 30121 ft 403 kts 286°
2026-05-07 09:49 35.23037 20.15575 30120 ft 403 kts 286°
2026-05-07 09:49 35.24367 20.08906 30116 ft 403 kts 286°
2026-05-07 09:50 35.25691 20.02234 30091 ft 403 kts 286°
2026-05-07 09:50 35.27011 19.95575 30100 ft 401 kts 286°
2026-05-07 09:51 35.28324 19.88931 30094 ft 401 kts 286°
2026-05-07 09:51 35.29624 19.82339 30092 ft 401 kts 286°
2026-05-07 09:52 35.30928 19.75701 30092 ft 400 kts 286°
2026-05-07 09:52 35.32221 19.69063 30093 ft 400 kts 286°
2026-05-07 09:53 35.33516 19.62426 30097 ft 400 kts 286°
2026-05-07 09:53 35.34810 19.55786 30090 ft 400 kts 286°
2026-05-07 09:54 35.36089 19.49194 30092 ft 400 kts 285°
2026-05-07 09:54 35.37369 19.42548 30092 ft 400 kts 285°
2026-05-07 09:55 35.38650 19.35910 30087 ft 400 kts 285°
2026-05-07 09:55 35.39933 19.29244 30090 ft 401 kts 285°
2026-05-07 09:56 35.41211 19.22583 30092 ft 401 kts 285°
2026-05-07 09:56 35.42470 19.15969 30096 ft 401 kts 285°
2026-05-07 09:57 35.43738 19.09312 30094 ft 401 kts 285°
2026-05-07 09:57 35.45004 19.02637 30088 ft 401 kts 285°
2026-05-07 09:58 35.46265 18.95952 30080 ft 402 kts 285°
2026-05-07 09:58 35.47513 18.89316 30082 ft 401 kts 285°
2026-05-07 09:59 35.48767 18.82643 30090 ft 401 kts 285°
2026-05-07 09:59 35.50013 18.75982 30089 ft 400 kts 285°
2026-05-07 10:00 35.51254 18.69319 30096 ft 400 kts 285°
2026-05-07 10:00 35.52494 18.62644 30087 ft 400 kts 285°
2026-05-07 10:01 35.53722 18.56025 30085 ft 399 kts 285°
2026-05-07 10:01 35.54952 18.49376 30082 ft 399 kts 285°
2026-05-07 10:02 35.56173 18.42733 30088 ft 398 kts 285°
2026-05-07 10:02 35.57394 18.36100 30081 ft 398 kts 285°
2026-05-07 10:03 35.58599 18.29510 30087 ft 398 kts 285°
2026-05-07 10:03 35.59808 18.22877 30040 ft 398 kts 285°
2026-05-07 10:04 35.61017 18.16230 30031 ft 398 kts 285°
2026-05-07 10:04 35.62218 18.09598 30034 ft 398 kts 285°
2026-05-07 10:05 35.63412 18.02983 30024 ft 397 kts 285°
2026-05-07 10:05 35.64604 17.96346 30011 ft 397 kts 284°
2026-05-07 10:06 35.65796 17.89715 30017 ft 397 kts 284°
2026-05-07 10:06 35.66976 17.83116 30017 ft 397 kts 284°
2026-05-07 10:07 35.68158 17.76477 30013 ft 397 kts 284°
2026-05-07 10:07 35.69337 17.69836 30008 ft 397 kts 284°
2026-05-07 10:08 35.70514 17.63191 30001 ft 397 kts 284°
2026-05-07 10:08 35.71684 17.56549 30009 ft 397 kts 284°
2026-05-07 10:09 35.72847 17.49933 30011 ft 398 kts 284°
2026-05-07 10:09 35.74017 17.43258 29999 ft 399 kts 284°
2026-05-07 10:10 35.75187 17.36555 29993 ft 400 kts 283°
2026-05-07 10:10 35.76351 17.29853 30001 ft 401 kts 283°
2026-05-07 10:11 35.77508 17.23180 30019 ft 401 kts 283°
2026-05-07 10:11 35.78672 17.16440 30021 ft 403 kts 283°
2026-05-07 10:12 35.79836 17.09672 29934 ft 404 kts 283°
2026-05-07 10:12 35.81001 17.02876 29927 ft 405 kts 283°
2026-05-07 10:13 35.82158 16.96124 29918 ft 405 kts 283°
2026-05-07 10:13 35.83317 16.89315 29913 ft 404 kts 282°
2026-05-07 10:14 35.84465 16.82520 29919 ft 404 kts 282°
2026-05-07 10:14 35.85609 16.75757 29909 ft 404 kts 282°
2026-05-07 10:15 35.86759 16.68942 29906 ft 405 kts 282°
2026-05-07 10:15 35.87895 16.62167 29917 ft 405 kts 282°
2026-05-07 10:16 35.89034 16.55349 29922 ft 405 kts 282°
2026-05-07 10:16 35.90167 16.48543 29924 ft 404 kts 281°
2026-05-07 10:17 35.91296 16.41747 29917 ft 404 kts 281°
2026-05-07 10:17 35.92420 16.34948 29918 ft 404 kts 281°
2026-05-07 10:18 35.93532 16.28206 29917 ft 403 kts 281°
2026-05-07 10:18 35.94646 16.21425 29902 ft 403 kts 281°
2026-05-07 10:19 35.95757 16.14638 29890 ft 403 kts 281°
2026-05-07 10:19 35.96860 16.07846 29889 ft 403 kts 281°
2026-05-07 10:20 35.97956 16.01097 29884 ft 403 kts 281°
2026-05-07 10:20 35.99052 15.94311 29887 ft 402 kts 281°
2026-05-07 10:21 36.00144 15.87533 29882 ft 403 kts 281°
2026-05-07 10:21 36.01237 15.80733 29877 ft 403 kts 281°
2026-05-07 10:22 36.02321 15.73942 29885 ft 403 kts 281°
2026-05-07 10:22 36.03406 15.67139 29883 ft 403 kts 281°
2026-05-07 10:23 36.04479 15.60384 29879 ft 402 kts 281°
2026-05-07 10:23 36.05547 15.53597 29871 ft 401 kts 280°
2026-05-07 10:24 36.06608 15.46861 29868 ft 401 kts 280°
2026-05-07 10:24 36.07672 15.40074 29858 ft 402 kts 280°
2026-05-07 10:25 36.08729 15.33316 29860 ft 402 kts 280°
2026-05-07 10:25 36.09789 15.26523 29853 ft 401 kts 280°
2026-05-07 10:26 36.10842 15.19746 29851 ft 401 kts 280°
2026-05-07 10:26 36.11887 15.12969 29849 ft 401 kts 280°
2026-05-07 10:27 36.12928 15.06202 29849 ft 401 kts 279°
2026-05-07 10:27 36.13967 14.99415 29858 ft 401 kts 279°
2026-05-07 10:28 36.14996 14.92667 29860 ft 400 kts 279°
2026-05-07 10:28 36.16029 14.85882 29850 ft 401 kts 279°
2026-05-07 10:29 36.17056 14.79097 29852 ft 401 kts 279°
2026-05-07 10:29 36.18075 14.72338 29854 ft 401 kts 279°
2026-05-07 10:30 36.19605 14.62143 29852 ft 401 kts 279°
2026-05-07 10:30 36.20619 14.55354 29848 ft 401 kts 278°
2026-05-07 10:31 36.21632 14.48550 29832 ft 401 kts 278°
2026-05-07 10:31 36.22630 14.41803 29846 ft 401 kts 278°
2026-05-07 10:32 36.23634 14.34996 29847 ft 401 kts 278°
2026-05-07 10:32 36.24463 14.29349 29838 ft 401 kts 278°
2026-05-07 10:33 36.25457 14.22547 29838 ft 401 kts 278°
2026-05-07 10:33 36.26448 14.15738 29845 ft 402 kts 278°
2026-05-07 10:34 36.27443 14.08893 29841 ft 402 kts 278°
2026-05-07 10:34 36.28433 14.02061 29828 ft 402 kts 278°
2026-05-07 10:35 36.29415 13.95244 29847 ft 402 kts 278°
2026-05-07 10:35 36.30391 13.88457 29854 ft 402 kts 278°
2026-05-07 10:36 36.31365 13.81623 29851 ft 402 kts 277°
2026-05-07 10:36 36.32333 13.74804 29855 ft 402 kts 278°
2026-05-07 10:37 36.33301 13.67966 29853 ft 402 kts 278°
2026-05-07 10:37 36.34258 13.61170 29852 ft 402 kts 277°
2026-05-07 10:38 36.35217 13.54343 29851 ft 401 kts 277°
2026-05-07 10:38 36.36171 13.47527 29852 ft 400 kts 278°
2026-05-07 10:39 36.37121 13.40707 29853 ft 400 kts 277°
2026-05-07 10:39 36.38070 13.33876 29848 ft 401 kts 277°
2026-05-07 10:40 36.39008 13.27057 29855 ft 401 kts 277°
2026-05-07 10:40 36.39938 13.20268 29850 ft 401 kts 277°
2026-05-07 10:41 36.40869 13.13434 29859 ft 400 kts 277°
2026-05-07 10:41 36.41811 13.06603 29856 ft 401 kts 277°
2026-05-07 10:42 36.42736 12.99760 29845 ft 401 kts 277°
2026-05-07 10:42 36.43654 12.92986 29847 ft 399 kts 277°
2026-05-07 10:43 36.44564 12.86167 29862 ft 400 kts 277°
2026-05-07 10:43 36.45468 12.79341 29864 ft 400 kts 276°
2026-05-07 10:44 36.46381 12.72500 29857 ft 402 kts 276°
2026-05-07 10:44 36.47291 12.65643 29857 ft 401 kts 276°
2026-05-07 10:45 36.48192 12.58827 29859 ft 402 kts 276°
2026-05-07 10:45 36.49084 12.51939 29865 ft 404 kts 276°
2026-05-07 10:46 36.49997 12.45041 29873 ft 404 kts 276°
2026-05-07 10:46 36.50898 12.38153 29875 ft 403 kts 276°
2026-05-07 10:47 36.51780 12.31303 29869 ft 404 kts 276°
2026-05-07 10:47 36.52667 12.24409 29872 ft 404 kts 276°
2026-05-07 10:48 36.53554 12.17497 29880 ft 404 kts 276°
2026-05-07 10:48 36.54434 12.10614 29873 ft 406 kts 276°
2026-05-07 10:49 36.55319 12.03696 29881 ft 405 kts 276°
2026-05-07 10:49 36.56192 11.96746 29876 ft 406 kts 276°
2026-05-07 10:50 36.57068 11.89812 29885 ft 405 kts 275°
2026-05-07 10:50 36.57935 11.82944 29877 ft 404 kts 275°
2026-05-07 10:51 36.58799 11.76046 29888 ft 404 kts 275°
2026-05-07 10:51 36.59645 11.69131 29889 ft 404 kts 275°
2026-05-07 10:52 36.60501 11.62200 29887 ft 405 kts 275°
2026-05-07 10:52 36.61359 11.55269 29892 ft 404 kts 275°
2026-05-07 10:53 36.62274 11.48387 29890 ft 404 kts 279°
2026-05-07 10:53 36.63543 11.41607 29904 ft 405 kts 279°
2026-05-07 10:54 36.64830 11.34791 29902 ft 404 kts 279°
2026-05-07 10:54 36.66162 11.27974 29896 ft 404 kts 279°
2026-05-07 10:55 36.67397 11.21204 29907 ft 403 kts 278°
2026-05-07 10:55 36.68630 11.14384 29915 ft 405 kts 278°
2026-05-07 10:56 36.69890 11.07533 29904 ft 405 kts 278°
2026-05-07 10:56 36.71142 11.00682 29902 ft 406 kts 278°
2026-05-07 10:57 36.72399 10.93861 29908 ft 404 kts 278°
2026-05-07 10:57 36.73649 10.87024 29908 ft 404 kts 278°
2026-05-07 10:58 36.74896 10.80191 29910 ft 404 kts 278°
2026-05-07 10:58 36.76135 10.73387 29910 ft 403 kts 278°
2026-05-07 10:59 36.77372 10.66564 29903 ft 404 kts 278°
2026-05-07 10:59 36.78606 10.59709 29908 ft 404 kts 278°
2026-05-07 11:00 36.79826 10.52868 29902 ft 404 kts 278°
2026-05-07 11:00 36.81045 10.46032 29905 ft 404 kts 278°
2026-05-07 11:01 36.82253 10.39227 29912 ft 405 kts 278°
2026-05-07 11:01 36.83469 10.32363 29903 ft 405 kts 278°
2026-05-07 11:02 36.84675 10.25495 29914 ft 404 kts 277°
2026-05-07 11:02 36.85093 10.18563 29920 ft 398 kts 266°
2026-05-07 11:03 36.84964 10.11656 29921 ft 399 kts 266°
2026-05-07 11:03 36.84852 10.04721 29921 ft 399 kts 266°
2026-05-07 11:04 36.84749 9.97836 29913 ft 400 kts 266°
2026-05-07 11:04 36.84646 9.90899 29919 ft 399 kts 266°
2026-05-07 11:05 36.84535 9.83969 29916 ft 399 kts 266°
2026-05-07 11:05 36.84425 9.77042 29918 ft 399 kts 266°
2026-05-07 11:06 36.84309 9.70108 29915 ft 399 kts 265°
2026-05-07 11:06 36.84190 9.63218 29921 ft 399 kts 266°
2026-05-07 11:07 36.84067 9.56289 29923 ft 399 kts 266°
2026-05-07 11:07 36.83938 9.49350 29931 ft 398 kts 265°
2026-05-07 11:08 36.83806 9.42475 29932 ft 398 kts 265°
2026-05-07 11:08 36.83754 9.35551 29934 ft 399 kts 266°
2026-05-07 11:09 36.83745 9.28673 29932 ft 394 kts 266°
2026-05-07 11:09 36.83746 9.21818 29939 ft 396 kts 267°
2026-05-07 11:10 36.83755 9.14934 29957 ft 397 kts 265°
2026-05-07 11:10 36.83691 9.08022 29968 ft 400 kts 266°
2026-05-07 11:11 36.83693 9.01114 29945 ft 401 kts 266°
2026-05-07 11:11 36.83654 8.94195 29935 ft 398 kts 265°
2026-05-07 11:12 36.83553 8.87313 29944 ft 394 kts 266°
2026-05-07 11:12 36.83540 8.80425 29955 ft 396 kts 265°
2026-05-07 11:13 36.83451 8.73540 29933 ft 395 kts 265°
2026-05-07 11:13 36.83414 8.66693 29973 ft 393 kts 266°
2026-05-07 11:14 36.83394 8.59900 29971 ft 393 kts 266°
2026-05-07 11:14 36.83308 8.53089 29949 ft 395 kts 266°
2026-05-07 11:15 36.83401 8.46214 29973 ft 395 kts 266°
2026-05-07 11:15 36.83420 8.39870 29962 ft 396 kts 265°
2026-05-07 11:16 36.83387 8.33008 29963 ft 400 kts 266°
2026-05-07 11:16 36.83408 8.26055 29976 ft 403 kts 266°
2026-05-07 11:17 36.83388 8.19136 29962 ft 394 kts 266°
2026-05-07 11:17 36.83382 8.12295 29962 ft 394 kts 266°
2026-05-07 11:18 36.83345 8.05381 29954 ft 397 kts 265°
2026-05-07 11:18 36.83271 7.98515 29954 ft 393 kts 266°
2026-05-07 11:19 36.83267 7.91678 29948 ft 396 kts 265°
2026-05-07 11:19 36.83210 7.84841 29948 ft 392 kts 265°
2026-05-07 11:20 36.83164 7.78007 29941 ft 394 kts 265°
2026-05-07 11:20 36.83101 7.71130 29935 ft 396 kts 265°
2026-05-07 11:21 36.83024 7.64218 29941 ft 397 kts 265°
2026-05-07 11:21 36.82957 7.58481 29943 ft 398 kts 265°
2026-05-07 11:22 36.82868 7.50416 29944 ft 399 kts 265°
2026-05-07 11:22 36.82788 7.44619 29944 ft 397 kts 264°
2026-05-07 11:23 36.82711 7.37762 29937 ft 397 kts 265°
2026-05-07 11:23 36.82624 7.30864 29953 ft 398 kts 264°
2026-05-07 11:24 36.82500 7.23938 29924 ft 400 kts 264°
2026-05-07 11:24 36.82409 7.17005 29925 ft 399 kts 264°
2026-05-07 11:25 36.82280 7.10124 29933 ft 399 kts 264°
2026-05-07 11:25 36.82163 7.03180 29921 ft 399 kts 264°
2026-05-07 11:26 36.82136 6.96277 29938 ft 395 kts 264°
2026-05-07 11:26 36.82018 6.89440 29927 ft 396 kts 264°
2026-05-07 11:27 36.81792 6.82582 29941 ft 394 kts 263°
2026-05-07 11:27 36.81697 6.75697 29943 ft 396 kts 264°
2026-05-07 11:28 36.81647 6.68830 29923 ft 399 kts 265°
2026-05-07 11:28 36.81496 6.61871 29923 ft 402 kts 263°
2026-05-07 11:29 36.81306 6.54872 29932 ft 404 kts 263°
2026-05-07 11:29 36.81190 6.47944 29928 ft 397 kts 264°
2026-05-07 11:30 36.81026 6.41065 29933 ft 397 kts 264°
2026-05-07 11:30 36.80877 6.34180 29916 ft 394 kts 263°
2026-05-07 11:31 36.80715 6.27326 29913 ft 396 kts 263°
2026-05-07 11:31 36.80624 6.20411 30088 ft 396 kts 264°
2026-05-07 11:32 36.80456 6.13499 29473 ft 402 kts 263°
2026-05-07 11:32 36.80350 6.10021 29045 ft 401 kts 263°
2026-05-07 11:32 36.80220 6.06508 28736 ft 408 kts 263°
2026-05-07 11:33 36.80148 6.02942 28336 ft 412 kts 264°
2026-05-07 11:33 36.80097 5.99358 27976 ft 413 kts 264°
2026-05-07 11:33 36.80013 5.95754 27599 ft 418 kts 263°
2026-05-07 11:33 36.79872 5.92113 27230 ft 421 kts 264°
2026-05-07 11:34 36.79781 5.88490 26872 ft 423 kts 264°
2026-05-07 11:34 36.79612 5.84813 26507 ft 425 kts 261°
2026-05-07 11:34 36.79282 5.81137 26143 ft 427 kts 259°
2026-05-07 11:34 36.78882 5.77474 25748 ft 426 kts 259°
2026-05-07 11:35 36.78469 5.73802 25362 ft 427 kts 259°
2026-05-07 11:35 36.78062 5.70130 25001 ft 427 kts 259°
2026-05-07 11:35 36.77663 5.66451 24627 ft 428 kts 260°
2026-05-07 11:35 36.77273 5.62749 24249 ft 429 kts 260°
2026-05-07 11:36 36.76925 5.59055 23873 ft 428 kts 261°
2026-05-07 11:36 36.76575 5.55401 23496 ft 424 kts 261°
2026-05-07 11:36 36.76222 5.51809 23134 ft 421 kts 260°
2026-05-07 11:36 36.75792 5.48216 22746 ft 417 kts 258°
2026-05-07 11:37 36.75362 5.44642 22382 ft 416 kts 260°
2026-05-07 11:37 36.74999 5.41081 22017 ft 414 kts 261°
2026-05-07 11:37 36.74612 5.37505 21945 ft 418 kts 260°
2026-05-07 11:37 36.74237 5.33901 21907 ft 419 kts 261°
2026-05-07 11:38 36.73884 5.30292 21917 ft 418 kts 260°
2026-05-07 11:38 36.73514 5.26704 21914 ft 417 kts 259°
2026-05-07 11:38 36.73123 5.23131 21901 ft 416 kts 260°
2026-05-07 11:38 36.72757 5.19546 21905 ft 416 kts 260°
2026-05-07 11:39 36.72377 5.15957 21912 ft 420 kts 260°
2026-05-07 11:39 36.72057 5.12339 21904 ft 421 kts 264°
2026-05-07 11:39 36.72109 5.08685 21731 ft 421 kts 271°
2026-05-07 11:39 36.72509 5.05112 21485 ft 420 kts 276°
2026-05-07 11:40 36.73235 5.01587 21233 ft 422 kts 284°
2026-05-07 11:40 36.74269 4.98168 21001 ft 422 kts 288°
2026-05-07 11:40 36.75386 4.94755 20748 ft 427 kts 287°
2026-05-07 11:40 36.76493 4.91296 20506 ft 426 kts 287°
2026-05-07 11:41 36.77572 4.87878 20251 ft 419 kts 287°
2026-05-07 11:41 36.78606 4.84543 19992 ft 417 kts 286°
2026-05-07 11:41 36.79652 4.81170 19729 ft 417 kts 287°
2026-05-07 11:41 36.80728 4.77815 19498 ft 415 kts 287°
2026-05-07 11:42 36.81754 4.74456 19258 ft 414 kts 286°
2026-05-07 11:42 36.82762 4.71098 19000 ft 413 kts 286°
2026-05-07 11:42 36.83770 4.67731 18741 ft 413 kts 286°
2026-05-07 11:42 36.84778 4.64374 18495 ft 411 kts 286°
2026-05-07 11:43 36.85785 4.61031 18235 ft 410 kts 286°
2026-05-07 11:43 36.86780 4.57740 17991 ft 409 kts 287°
2026-05-07 11:43 36.87787 4.54417 17745 ft 407 kts 286°
2026-05-07 11:43 36.88788 4.51109 17487 ft 406 kts 286°
2026-05-07 11:44 36.89784 4.47815 17216 ft 404 kts 286°
2026-05-07 11:44 36.90772 4.44544 16994 ft 402 kts 286°
2026-05-07 11:44 36.91759 4.41273 16744 ft 401 kts 286°
2026-05-07 11:44 36.92730 4.38054 16494 ft 400 kts 286°
2026-05-07 11:45 36.93708 4.34800 16239 ft 399 kts 287°
2026-05-07 11:45 36.94683 4.31555 15754 ft 398 kts 286°
2026-05-07 11:45 36.95651 4.28333 15178 ft 392 kts 287°
2026-05-07 11:45 36.96604 4.25158 14566 ft 388 kts 287°
2026-05-07 11:46 36.97546 4.22013 13951 ft 385 kts 287°
2026-05-07 11:46 36.98482 4.18884 13338 ft 382 kts 287°
2026-05-07 11:46 36.99410 4.15777 12730 ft 379 kts 287°
2026-05-07 11:46 37.00313 4.12754 12069 ft 374 kts 287°
2026-05-07 11:47 37.01215 4.09730 11458 ft 362 kts 287°
2026-05-07 11:47 37.02076 4.06844 11168 ft 343 kts 287°
2026-05-07 11:47 37.02884 4.04133 11005 ft 323 kts 287°
2026-05-07 11:47 37.03645 4.01577 10866 ft 305 kts 287°
2026-05-07 11:48 37.04369 3.99136 10746 ft 295 kts 287°
2026-05-07 11:48 37.05079 3.96740 10632 ft 293 kts 287°
2026-05-07 11:48 37.05788 3.94342 10529 ft 294 kts 288°
2026-05-07 11:48 37.06358 3.91889 10383 ft 292 kts 271°
2026-05-07 11:49 37.06060 3.89429 10245 ft 287 kts 245°
2026-05-07 11:49 37.05017 3.87342 10068 ft 287 kts 227°
2026-05-07 11:49 37.03617 3.85570 9860 ft 290 kts 222°
2026-05-07 11:49 37.02142 3.83839 9549 ft 291 kts 221°
2026-05-07 11:50 37.00652 3.82115 9230 ft 289 kts 221°
2026-05-07 11:50 36.99187 3.80408 8944 ft 287 kts 221°
2026-05-07 11:50 36.97736 3.78706 8644 ft 285 kts 221°
2026-05-07 11:50 36.96297 3.77006 8348 ft 282 kts 222°
2026-05-07 11:51 36.94867 3.75315 8066 ft 282 kts 222°
2026-05-07 11:51 36.93443 3.73629 7759 ft 280 kts 222°
2026-05-07 11:51 36.92049 3.71977 7452 ft 273 kts 222°
2026-05-07 11:51 36.90692 3.70367 7168 ft 265 kts 221°
2026-05-07 11:52 36.89394 3.68825 6896 ft 257 kts 221°
2026-05-07 11:52 36.88113 3.67306 6627 ft 250 kts 221°
2026-05-07 11:52 36.86868 3.65828 6368 ft 243 kts 221°
2026-05-07 11:52 36.85659 3.64393 6120 ft 237 kts 221°
2026-05-07 11:53 36.84479 3.62994 5887 ft 230 kts 221°
2026-05-07 11:53 36.83314 3.61615 5656 ft 231 kts 221°
2026-05-07 11:53 36.82141 3.60224 5438 ft 233 kts 221°
2026-05-07 11:53 36.80974 3.58848 5208 ft 234 kts 221°
2026-05-07 11:54 36.79788 3.57446 4975 ft 236 kts 221°
2026-05-07 11:54 36.78655 3.55963 4772 ft 235 kts 227°
2026-05-07 11:54 36.77587 3.54438 4559 ft 232 kts 227°
2026-05-07 11:54 36.76546 3.52925 4349 ft 226 kts 227°
2026-05-07 11:55 36.75533 3.51478 4147 ft 219 kts 227°
2026-05-07 11:55 36.74553 3.50085 3970 ft 217 kts 227°
2026-05-07 11:55 36.73547 3.48662 3826 ft 226 kts 227°
2026-05-07 11:55 36.72507 3.47187 3653 ft 237 kts 227°
2026-05-07 11:56 36.71402 3.45619 3447 ft 242 kts 227°
2026-05-07 11:56 36.70288 3.44041 3221 ft 241 kts 227°
2026-05-07 11:56 36.69207 3.42492 2985 ft 232 kts 231°
2026-05-07 11:56 36.68595 3.40697 2765 ft 224 kts 269°
2026-05-07 11:57 36.68794 3.38864 2635 ft 208 kts 276°
2026-05-07 11:57 36.68688 3.37132 2473 ft 196 kts 257°
2026-05-07 11:57 36.68685 3.35466 2274 ft 194 kts 285°
2026-05-07 11:57 36.68965 3.33881 2004 ft 183 kts 264°
2026-05-07 11:58 36.68805 3.32334 1804 ft 181 kts 269°
2026-05-07 11:58 36.68915 3.30791 1580 ft 177 kts 270°
2026-05-07 11:58 36.68928 3.29292 1336 ft 167 kts 270°
2026-05-07 11:58 36.68952 3.27916 1110 ft 156 kts 270°
2026-05-07 11:59 36.68982 3.26615 911 ft 145 kts 270°
2026-05-07 11:59 36.69012 3.25360 741 ft 144 kts 270°
2026-05-07 11:59 36.69041 3.24108 544 ft 145 kts 270°
2026-05-07 11:59 36.69071 3.22853 358 ft 144 kts 271°
2026-05-07 12:00 36.69100 3.21608 162 ft 143 kts 271°
2026-05-07 12:00 36.69122 3.20388 69 ft 126 kts 270°
2026-05-07 12:00 36.69134 3.19797 64 ft 14 kts 275°
2026-05-07 12:00 36.69135 3.19781 64 ft 6 kts 275°
2026-05-07 12:01 36.69144 3.19641 72 ft 24 kts 272°
2026-05-07 12:01 36.69149 3.19437 74 ft 22 kts 271°
2026-05-07 12:01 36.69153 3.19257 74 ft 20 kts 271°
2026-05-07 12:01 36.69156 3.19104 71 ft 15 kts 271°
2026-05-07 12:02 36.69158 3.18987 74 ft 14 kts 271°
2026-05-07 12:02 36.69161 3.18842 72 ft 23 kts 271°
2026-05-07 12:02 36.69164 3.18630 73 ft 21 kts 271°
2026-05-07 12:02 36.69169 3.18490 77 ft 14 kts 281°
2026-05-07 12:03 36.69210 3.18428 72 ft 9 kts 344°
2026-05-07 12:03 36.69269 3.18426 68 ft 9 kts
2026-05-07 12:03 36.69330 3.18455 62 ft 10 kts 54°
2026-05-07 12:03 36.69339 3.18543 70 ft 13 kts 93°
2026-05-07 12:04 36.69334 3.18718 69 ft 27 kts 91°
2026-05-07 12:04 36.69328 3.19000 67 ft 35 kts 92°
2026-05-07 12:04 36.69321 3.19290 63 ft 32 kts 91°
2026-05-07 12:04 36.69316 3.19559 67 ft 30 kts 92°
2026-05-07 12:05 36.69312 3.19750 65 ft 16 kts 91°
2026-05-07 12:05 36.69308 3.19884 69 ft 14 kts 92°
2026-05-07 12:05 36.69305 3.19999 69 ft 12 kts 92°
2026-05-07 12:05 36.69302 3.20102 69 ft 12 kts 92°
2026-05-07 12:06 36.69300 3.20199 66 ft 11 kts 91°
2026-05-07 12:06 36.69309 3.20268 70 ft 8 kts 54°
2026-05-07 12:06 36.69355 3.20287 69 ft 7 kts
2026-05-07 12:06 36.69400 3.20289 64 ft 6 kts
2026-05-07 12:07 36.69437 3.20316 69 ft 6 kts 51°
2026-05-07 12:07 36.69466 3.20359 65 ft 7 kts 36°
2026-05-07 12:07 36.69517 3.20365 65 ft 8 kts
2026-05-07 12:07 36.69581 3.20372 69 ft 10 kts 20°
2026-05-07 12:08 36.69601 3.20396 69 ft 0 kts 62°
2026-05-07 12:08 36.69604 3.20409 65 ft 0 kts 87°
2026-05-07 12:09 36.69604 3.20428 63 ft 4 kts 89°
2026-05-07 12:09 36.69604 3.20455 69 ft 3 kts 91°
2026-05-07 12:10 36.69603 3.20480 60 ft 4 kts 91°
2026-05-07 12:10 36.69603 3.20486 69 ft 0 kts 91°
2026-05-07 12:10 36.69603 3.20488 69 ft 2 kts 92°
2026-05-07 12:10 36.69597 3.20497 65 ft 1 kts 145°
2026-05-07 12:11 36.69593 3.20496 69 ft 1 kts 181°
2026-05-07 12:11 36.69580 3.20495 60 ft 0 kts 181°
2026-05-07 12:11 36.69577 3.20495 69 ft 1 kts 181°
2026-05-07 12:11 36.69554 3.20495 69 ft 4 kts 181°
2026-05-07 12:12 36.69539 3.20494 69 ft 2 kts 181°
2026-05-07 12:12 36.69530 3.20494 69 ft 1 kts 181°
2026-05-07 12:12 36.69525 3.20494 61 ft 1 kts 181°
2026-05-07 12:12 36.69520 3.20494 69 ft 0 kts 182°
2026-05-07 12:13 36.69517 3.20493 69 ft 0 kts 182°
2026-05-07 12:13 36.69516 3.20493 69 ft 0 kts 182°